Вернуться в каталог

STARLINK-35475

АктивенСвязьVLEO
NORAD 65865·PAYLOAD·🇺🇸 United States

Запущен Oct 3, 2025 с Vandenberg Space Force Base

Loading…

Ближайшие Пролёты (ближайшие 24 часа)

TLE

СвежийSource: CelesTrak SupGP

Эпоха: Sep 14, 2026, 23:10 UTC

1 65865C 25223M   26257.96576389  .00017810  00000+0  52540-3 0  2571
2 65865  53.1560 131.3726 0001444  95.1566 347.1757 15.34429591    18

Отслеживайте STARLINK-35475 в реальном времени с AllMySat

Download on the App Store